Location: Coupvray
(48.8929°N, 2.7967°E)
Time: 08:52:36
(UTC+00:00)

Meteor 1-4 Rocket - Pass Details

Date: 14 July 2020
Orbit: 448 x 503 km, 81.2° (Epoch: 14 August)

Event Time Altitude Azimuth Distance (km) Brightness Sun altitude
Rises 00:14:41 0° 351° (N) 2,594 7.7 -19.3°
Reaches altitude 10° 00:16:51 10° 356° (N) 1,699 6.5 -19.3°
Maximum altitude 00:20:32 58° 76° (ENE) 575 2.9 -19.2°
Enters shadow 00:21:25 43° 129° (SE) 689 3.0 -19.2°
